DELTA 1 DEB, 21549

Orbit data source: Space-Track

DELTA 1 DEB, 21549 is space debris in SSO originally from a launch on Thu, 12 Jun 1975 UTC launched from the Air Force Western Test Range (AFWTR). Debris objects in space refer to the collection of defunct objects orbiting the Earth. Examples of debris include non-operational satellites, rocket bodies, and fragments generated from explosions, collisions, or faulty payload assembly.

Loading next visibility...
Identifier
21549, 1975-052HD
Orbit
SSO
Country
Flag of USUS
Related business
Manufacturer
Unknown
Mission
Spacecraft
Bus & Motor
Unknown
Mass
Unknown
Launch date (UTC)
1975-06-12 (51 years ago)
Launch vehicle
Unknown
Launch site
Air Force Western Test Range (AFWTR)
Object type
Payload
Rocket body
Debris
Shape & HBR
Unknown shape, 1.1 m
Radar Cross Section
Small (<0.1 m²)

Expand to show TLE details & history
Last TLE update: 21 hours ago

TLE from 21 hours ago
0 DELTA 1 DEB
1 21549U 75052HD  25349.96587561  .00000201  00000-0  63465-3 0  9990
2 21549  99.7719 347.5013 0201531 309.9414 117.7129 13.09332351649243
Epoch: 2025-12-15T23:10Z
TLE epoch observation values (Epoch: 2025-12-15T23:10:51.652Z)
Latitude
67.61633°
Longitude
-109.65951°
Altitude
1,311.016 km
Speed
7.172 km/s
True Right ascension
21h 31m 39s
True Declination
67° 30' 13"
Sunlit
Object was in daylight at epoch
Visualization orbit readout
Latitude
Unknown
Longitude
Unknown
Altitude
Unknown
Speed
Unknown
Apparent Right ascension
Unknown
Apparent Declination
Unknown
Sunlit
N/A
Visualization observer readout
Local Sidereal Time
18:53:41
Azimuth
Unknown
Elevation
Unknown
Doppler factor
Unknown
Orbital elements
Apogee altitude
1,376.289 km
Perigee altitude
1,069.912 km
Semi-major axis
7,601.238 km
Eccentricity
0.02015
Inclination
99.7719°
RAAN
347.5013°
Arg. of periapsis
309.9414°
True anomaly
119.73326°
Mean anomaly
117.7129°
Eccentric anomaly
118.72548°
Mean motion
3.27504 °/min
Orbital period
109.92 mins
BSTAR
0.00063465
Loading maneuver chart data...
Computing Atmospheric mass density...
Loading historical data...
Loading historical data...
Loading historical data...
Loading historical data...
Loading historical data...
Loading historical data...
Loading historical data...

Documentation

Showing up to 5 results
|